Weather History for KGEZ - September, 2011

Change the Weather History Date:

Wednesday, September 21, 2011

  Actual Average Record
Temperature  
Mean Temperature 71 °F 64 °F  
Max Temperature 81 °F 76 °F 94 °F (2010)
Min Temperature 60 °F 51 °F 41 °F (2006)
Degree Days  
Heating Degree Days 0 4  
Month to date heating degree days 60 32  
Since 1 July heating degree days 60 38  
Cooling Degree Days 6 2  
Month to date cooling degree days 92 79  
Year to date cooling degree days 1239 885  
Growing Degree Days 23 (Base 50)    
Moisture  
Dew Point 62 °F    
Average Humidity 68    
Maximum Humidity 93    
Minimum Humidity 42    
Precipitation  
Precipitation 0.00 in 0.10 in 0.94 in (2012)
Month to date precipitation 3.31 2.23  
Year to date precipitation 38.41 32.51  
Sea Level Pressure  
Sea Level Pressure 29.98 in    
Wind  
Wind Speed 5 mph (SSW)    
Max Wind Speed 17 mph    
Max Gust Speed 21 mph    
Visibility 8 miles    
Events      
T = Trace of Precipitation, MM = Missing Value Source: NWS Daily Summary

Daily Weather History Graph

Daily Weather History Graph

Search for Another Location

Airport or City:

Trip Planner

Search our weather history database for the weather conditions in past years. The results will help you decide how hot, cold, wet, or windy it might be!

Date:

Astronomy

Sep. 21, 2011 Rise Set
Actual Time 7:29 AM EDT 7:42 PM EDT
Civil Twilight 7:02 AM EDT 8:09 PM EDT
Nautical Twilight 6:31 AM EDT 8:40 PM EDT
Astronomical Twilight 5:59 AM EDT 9:12 PM EDT
Moon 12:50 AM EDT (9/21) 3:50 PM EDT (9/21)
Length of Visible Light 13h 06m
Length of Day
12h 12m
Last Quarter, 39% of the Moon is Illuminated
Sep 21
Last Quarter
Sep 27
New
Oct 3
First Quarter
Oct 11
Full
Oct 19
Last Quarter

Hourly Weather History & Observations

Time (EDT) Temp. Heat Index Dew Point Humidity Pressure Visibility Wind Dir Wind Speed Gust Speed Precip Events Conditions
12:53 AM 66.0 °F - 63.0 °F 90% 30.01 in 8.0 mi Calm Calm - N/A   Overcast
1:53 AM 66.9 °F - 63.0 °F 87% 29.99 in 10.0 mi South 4.6 mph - N/A   Overcast
2:17 AM 66.2 °F - 64.4 °F 94% 30.00 in 10.0 mi SSW 3.5 mph - N/A   Overcast
2:53 AM 66.9 °F - 64.0 °F 90% 29.99 in 10.0 mi South 4.6 mph - N/A   Overcast
3:15 AM 66.2 °F - 64.4 °F 94% 30.00 in 10.0 mi Calm Calm - N/A   Overcast
3:28 AM 66.2 °F - 64.4 °F 94% 30.00 in 10.0 mi South 3.5 mph - N/A   Overcast
3:53 AM 66.9 °F - 64.0 °F 90% 29.97 in 9.0 mi South 4.6 mph - N/A   Overcast
4:53 AM 66.9 °F - 64.0 °F 90% 29.96 in 9.0 mi South 3.5 mph - N/A   Overcast
5:53 AM 66.0 °F - 64.0 °F 93% 29.97 in 7.0 mi SSW 3.5 mph - N/A   Overcast
6:31 AM 66.2 °F - 64.4 °F 94% 29.98 in 6.0 mi South 4.6 mph - N/A   Overcast
6:53 AM 66.0 °F - 64.0 °F 93% 29.97 in 5.0 mi Calm Calm - N/A   Overcast
7:28 AM 66.2 °F - 64.4 °F 94% 29.99 in 5.0 mi SSW 3.5 mph - N/A   Overcast
7:53 AM 66.0 °F - 64.0 °F 93% 29.98 in 4.0 mi South 3.5 mph - N/A   Overcast
8:05 AM 66.2 °F - 64.4 °F 94% 29.99 in 3.0 mi South 3.5 mph - N/A   Overcast
8:15 AM 66.2 °F - 64.4 °F 94% 29.99 in 2.5 mi South 3.5 mph - N/A   Overcast
8:26 AM 66.2 °F - 64.4 °F 94% 29.99 in 2.5 mi South 4.6 mph - N/A   Overcast
8:31 AM 66.2 °F - 64.4 °F 94% 30.00 in 3.0 mi South 4.6 mph - N/A   Mostly Cloudy
8:53 AM 66.0 °F - 64.0 °F 93% 29.99 in 3.0 mi South 4.6 mph - N/A   Mostly Cloudy
9:03 AM 66.2 °F - 64.4 °F 94% 30.00 in 3.0 mi South 4.6 mph - N/A   Mostly Cloudy
9:26 AM 68.0 °F - 64.4 °F 88% 30.00 in 4.0 mi SSW 4.6 mph - N/A   Overcast
10:02 AM 69.8 °F - 64.4 °F 83% 30.00 in 6.0 mi SSW 5.8 mph - N/A   Mostly Cloudy
10:17 AM 69.8 °F - 64.4 °F 83% 30.00 in 7.0 mi South 5.8 mph - N/A   Overcast
10:53 AM 70.0 °F - 64.0 °F 81% 29.99 in 10.0 mi WSW 6.9 mph - N/A   Overcast
11:05 AM 71.6 °F - 64.4 °F 78% 30.01 in 10.0 mi WSW 4.6 mph - N/A   Overcast
11:53 AM 73.0 °F - 63.0 °F 71% 29.98 in 10.0 mi West 4.6 mph - N/A   Scattered Clouds
12:02 PM 71.6 °F - 62.6 °F 73% 29.99 in 10.0 mi WSW 5.8 mph - N/A   Mostly Cloudy
12:16 PM 73.4 °F - 62.6 °F 69% 29.99 in 10.0 mi WSW 4.6 mph - N/A   Overcast
12:53 PM 73.0 °F - 63.0 °F 71% 29.97 in 10.0 mi WSW 4.6 mph - N/A   Overcast
1:53 PM 77.0 °F - 61.0 °F 58% 29.96 in 10.0 mi SW 6.9 mph - N/A   Overcast
2:53 PM 79.0 °F - 59.0 °F 50% 29.94 in 10.0 mi Variable 4.6 mph - N/A   Partly Cloudy
3:53 PM 80.1 °F 80.2 °F 55.9 °F 43% 29.94 in 10.0 mi WSW 11.5 mph - N/A   Partly Cloudy
4:53 PM 78.1 °F - 55.9 °F 46% 29.94 in 10.0 mi WSW 10.4 mph - N/A   Scattered Clouds
5:53 PM 79.0 °F - 57.0 °F 47% 29.94 in 10.0 mi SW 11.5 mph - N/A   Scattered Clouds
6:53 PM 75.9 °F - 57.9 °F 54% 29.95 in 10.0 mi SW 6.9 mph - N/A   Clear
7:53 PM 69.1 °F - 57.9 °F 68% 29.96 in 10.0 mi SW 5.8 mph - N/A   Clear
8:53 PM 69.1 °F - 59.0 °F 70% 29.98 in 10.0 mi SW 3.5 mph - N/A   Overcast
9:53 PM 66.9 °F - 59.0 °F 76% 30.00 in 10.0 mi WSW 4.6 mph - N/A   Clear
10:53 PM 66.0 °F - 55.9 °F 70% 30.01 in 10.0 mi WNW 5.8 mph - N/A   Mostly Cloudy
11:53 PM 63.0 °F - 53.1 °F 70% 30.03 in 10.0 mi NW 3.5 mph - N/A   Mostly Cloudy